TimeEDT,TemperatureF,Dew PointF,Humidity,Sea Level PressureIn,VisibilityMPH,Wind Direction,Wind SpeedMPH,Gust SpeedMPH,PrecipitationIn,Events,Conditions,WindDirDegrees,DateUTC
12:15 AM,77.0,73.4,89,30.05,10.0,Calm,Calm,-,N/A,,Clear,0,2013-08-03 04:15:00
12:35 AM,75.2,71.6,89,30.05,7.0,Calm,Calm,-,N/A,,Clear,0,2013-08-03 04:35:00
12:53 AM,77.0,73.0,88,30.03,-9999.0,Calm,Calm,-,N/A,,Unknown,0,2013-08-03 04:53:00
12:55 AM,73.4,71.6,94,30.04,10.0,Calm,Calm,-,N/A,,Clear,0,2013-08-03 04:55:00
1:15 AM,75.2,73.4,94,30.04,10.0,NW,3.5,-,N/A,,Clear,310,2013-08-03 05:15:00
1:35 AM,73.4,71.6,94,30.03,10.0,Calm,Calm,-,N/A,,Clear,0,2013-08-03 05:35:00
1:53 AM,77.0,73.0,88,30.01,-9999.0,Calm,Calm,-,N/A,,Unknown,0,2013-08-03 05:53:00
1:55 AM,75.2,73.4,94,30.03,10.0,Calm,Calm,-,N/A,,Clear,0,2013-08-03 05:55:00
2:15 AM,73.4,71.6,94,30.03,10.0,Calm,Calm,-,N/A,,Clear,0,2013-08-03 06:15:00
2:35 AM,73.4,71.6,94,30.02,10.0,Calm,Calm,-,N/A,,Clear,0,2013-08-03 06:35:00
2:53 AM,75.9,73.0,91,30.01,-9999.0,Calm,Calm,-,N/A,,Unknown,0,2013-08-03 06:53:00
2:55 AM,73.4,71.6,94,30.02,10.0,Calm,Calm,-,N/A,,Clear,0,2013-08-03 06:55:00
3:15 AM,73.4,71.6,94,30.02,7.0,Calm,Calm,-,N/A,,Clear,0,2013-08-03 07:15:00
3:35 AM,73.4,71.6,94,30.02,7.0,Calm,Calm,-,N/A,,Clear,0,2013-08-03 07:35:00
3:53 AM,75.0,72.0,90,30.00,-9999.0,Calm,Calm,-,N/A,,Unknown,0,2013-08-03 07:53:00
3:55 AM,73.4,71.6,94,30.01,7.0,Calm,Calm,-,N/A,,Clear,0,2013-08-03 07:55:00
4:15 AM,73.4,71.6,94,30.01,10.0,Calm,Calm,-,N/A,,Clear,0,2013-08-03 08:15:00
4:35 AM,73.4,71.6,94,30.01,10.0,Calm,Calm,-,N/A,,Clear,0,2013-08-03 08:35:00
4:53 AM,75.0,72.0,90,30.00,-9999.0,Calm,Calm,-,N/A,,Unknown,0,2013-08-03 08:53:00
4:55 AM,73.4,71.6,94,30.01,5.0,Calm,Calm,-,N/A,,Clear,0,2013-08-03 08:55:00
5:15 AM,73.4,71.6,94,30.01,7.0,Calm,Calm,-,N/A,,Clear,0,2013-08-03 09:15:00
5:35 AM,71.6,71.6,100,30.02,4.0,Calm,Calm,-,N/A,,Clear,0,2013-08-03 09:35:00
5:53 AM,75.0,72.0,90,30.01,-9999.0,Calm,Calm,-,N/A,,Unknown,0,2013-08-03 09:53:00
5:55 AM,73.4,71.6,94,30.02,5.0,Calm,Calm,-,N/A,,Scattered Clouds,0,2013-08-03 09:55:00
6:15 AM,71.6,71.6,100,30.02,5.0,Calm,Calm,-,N/A,,Scattered Clouds,0,2013-08-03 10:15:00
6:35 AM,73.4,71.6,94,30.03,5.0,Calm,Calm,-,N/A,,Mostly Cloudy,0,2013-08-03 10:35:00
6:53 AM,75.0,72.0,90,30.02,-9999.0,Calm,Calm,-,N/A,,Unknown,0,2013-08-03 10:53:00
6:55 AM,73.4,71.6,94,30.04,7.0,Calm,Calm,-,N/A,,Overcast,0,2013-08-03 10:55:00
7:15 AM,73.4,71.6,94,30.05,5.0,Calm,Calm,-,N/A,,Mostly Cloudy,0,2013-08-03 11:15:00
7:35 AM,73.4,71.6,94,30.05,5.0,Calm,Calm,-,N/A,,Scattered Clouds,0,2013-08-03 11:35:00
7:53 AM,77.0,73.9,90,30.04,-9999.0,Calm,Calm,-,N/A,,Unknown,0,2013-08-03 11:53:00
7:55 AM,73.4,73.4,100,30.05,5.0,Calm,Calm,-,N/A,,Scattered Clouds,0,2013-08-03 11:55:00
8:15 AM,75.2,73.4,94,30.05,7.0,Calm,Calm,-,N/A,,Clear,0,2013-08-03 12:15:00
8:35 AM,77.0,75.2,94,30.05,10.0,Calm,Calm,-,N/A,,Clear,0,2013-08-03 12:35:00
8:53 AM,82.0,75.9,82,30.04,-9999.0,WNW,3.5,-,N/A,,Unknown,300,2013-08-03 12:53:00
8:55 AM,78.8,77.0,94,30.06,10.0,NW,3.5,-,N/A,,Clear,310,2013-08-03 12:55:00
9:15 AM,80.6,77.0,89,30.06,10.0,NW,5.8,-,N/A,,Clear,310,2013-08-03 13:15:00
9:35 AM,82.4,75.2,79,30.07,10.0,WNW,4.6,-,N/A,,Clear,290,2013-08-03 13:35:00
9:53 AM,84.9,75.0,72,30.05,-9999.0,NW,5.8,-,N/A,,Unknown,310,2013-08-03 13:53:00
9:55 AM,82.4,75.2,79,30.07,10.0,NW,5.8,-,N/A,,Scattered Clouds,310,2013-08-03 13:55:00
10:15 AM,84.2,73.4,70,30.07,10.0,WNW,6.9,-,N/A,,Scattered Clouds,290,2013-08-03 14:15:00
10:35 AM,84.2,73.4,70,30.07,10.0,WNW,5.8,-,N/A,,Mostly Cloudy,300,2013-08-03 14:35:00
10:53 AM,86.0,73.9,67,30.06,-9999.0,WNW,6.9,-,N/A,,Unknown,300,2013-08-03 14:53:00
10:55 AM,86.0,73.4,66,30.07,10.0,NW,5.8,-,N/A,,Scattered Clouds,310,2013-08-03 14:55:00
11:15 AM,84.2,71.6,66,30.07,10.0,NW,5.8,-,N/A,,Scattered Clouds,310,2013-08-03 15:15:00
11:35 AM,86.0,71.6,62,30.08,10.0,WSW,4.6,-,N/A,,Mostly Cloudy,250,2013-08-03 15:35:00
11:53 AM,89.1,75.0,63,30.06,-9999.0,South,9.2,-,N/A,,Unknown,190,2013-08-03 15:53:00
11:55 AM,86.0,73.4,66,30.07,10.0,SSW,9.2,-,N/A,,Scattered Clouds,210,2013-08-03 15:55:00
12:15 PM,86.0,73.4,66,30.07,10.0,SW,6.9,-,N/A,,Mostly Cloudy,230,2013-08-03 16:15:00
12:35 PM,87.8,73.4,62,30.07,10.0,SSW,6.9,-,N/A,,Scattered Clouds,210,2013-08-03 16:35:00
12:53 PM,90.0,73.9,59,30.06,-9999.0,WSW,4.6,-,N/A,,Unknown,240,2013-08-03 16:53:00
12:55 PM,87.8,73.4,62,30.07,10.0,SW,4.6,-,N/A,,Scattered Clouds,230,2013-08-03 16:55:00
1:15 PM,82.4,73.4,74,30.08,5.0,SSW,3.5,-,0.05,Rain,Light Rain,210,2013-08-03 17:15:00
1:35 PM,84.2,75.2,74,30.07,10.0,SSW,3.5,-,0.05,Rain,Light Rain,200,2013-08-03 17:35:00
1:53 PM,90.0,77.0,65,30.05,-9999.0,South,5.8,-,0.05,,Unknown,180,2013-08-03 17:53:00
1:55 PM,87.8,73.4,62,30.06,10.0,South,4.6,-,0.05,,Scattered Clouds,190,2013-08-03 17:55:00
2:15 PM,87.8,73.4,62,30.06,10.0,SW,8.1,-,N/A,,Mostly Cloudy,220,2013-08-03 18:15:00
2:35 PM,87.8,73.4,62,30.05,10.0,SW,8.1,-,N/A,,Overcast,230,2013-08-03 18:35:00
2:53 PM,91.9,72.0,52,30.03,-9999.0,SW,8.1,-,N/A,,Unknown,220,2013-08-03 18:53:00
2:55 PM,89.6,71.6,55,30.05,10.0,WSW,8.1,-,N/A,,Scattered Clouds,240,2013-08-03 18:55:00
3:15 PM,89.6,71.6,55,30.04,10.0,WSW,11.5,18.4,N/A,,Clear,250,2013-08-03 19:15:00
3:35 PM,89.6,71.6,55,30.02,10.0,WSW,13.8,18.4,N/A,,Scattered Clouds,250,2013-08-03 19:35:00
3:53 PM,90.0,73.9,59,30.02,-9999.0,SW,15.0,-,N/A,,Unknown,230,2013-08-03 19:53:00
3:55 PM,87.8,73.4,62,30.03,10.0,WSW,15.0,18.4,N/A,Thunderstorm,Mostly Cloudy,240,2013-08-03 19:55:00
4:15 PM,87.8,71.6,58,30.04,10.0,WSW,12.7,19.6,N/A,Thunderstorm,Overcast,250,2013-08-03 20:15:00
4:35 PM,87.8,73.4,62,30.04,10.0,WNW,16.1,21.9,N/A,,Overcast,300,2013-08-03 20:35:00
4:44 PM,80.6,71.6,74,30.03,-9999.0,WNW,10.4,21.9,N/A,,Unknown,300,2013-08-03 20:44:00
4:53 PM,81.0,73.0,77,30.02,-9999.0,NW,8.1,-,N/A,,Unknown,310,2013-08-03 20:53:00
4:55 PM,78.8,71.6,78,30.04,10.0,NW,8.1,-,N/A,,Mostly Cloudy,320,2013-08-03 20:55:00
5:15 PM,78.8,73.4,83,30.04,10.0,West,5.8,-,N/A,Rain,Light Rain,280,2013-08-03 21:15:00
5:35 PM,78.8,73.4,83,30.04,10.0,NW,6.9,-,N/A,,Mostly Cloudy,310,2013-08-03 21:35:00
5:53 PM,82.0,73.9,76,30.02,-9999.0,WSW,5.8,-,N/A,,Unknown,250,2013-08-03 21:53:00
5:55 PM,80.6,73.4,79,30.03,10.0,West,5.8,-,N/A,,Scattered Clouds,260,2013-08-03 21:55:00
6:15 PM,80.6,73.4,79,30.03,10.0,Calm,Calm,-,N/A,,Scattered Clouds,0,2013-08-03 22:15:00
6:35 PM,82.4,73.4,74,30.02,10.0,SW,5.8,-,N/A,,Mostly Cloudy,230,2013-08-03 22:35:00
6:53 PM,84.9,73.9,69,30.01,-9999.0,SW,6.9,-,N/A,,Unknown,220,2013-08-03 22:53:00
6:55 PM,82.4,73.4,74,30.02,10.0,SW,5.8,-,N/A,,Mostly Cloudy,230,2013-08-03 22:55:00
7:15 PM,82.4,73.4,74,30.02,10.0,WSW,4.6,-,N/A,,Scattered Clouds,240,2013-08-03 23:15:00
7:35 PM,82.4,73.4,74,30.03,10.0,West,6.9,-,N/A,,Scattered Clouds,260,2013-08-03 23:35:00
7:53 PM,84.0,75.0,74,30.02,-9999.0,WSW,6.9,-,N/A,,Unknown,250,2013-08-03 23:53:00
7:55 PM,82.4,73.4,74,30.03,10.0,West,5.8,-,N/A,,Clear,260,2013-08-03 23:55:00
8:15 PM,80.6,73.4,79,30.03,10.0,West,5.8,-,N/A,,Clear,270,2013-08-04 00:15:00
8:35 PM,80.6,73.4,79,30.04,10.0,WSW,5.8,-,N/A,,Clear,250,2013-08-04 00:35:00
8:53 PM,81.0,75.0,82,30.04,-9999.0,West,5.8,-,N/A,,Unknown,260,2013-08-04 00:53:00
8:55 PM,78.8,73.4,83,30.05,10.0,West,4.6,-,N/A,,Clear,270,2013-08-04 00:55:00
9:15 PM,78.8,73.4,83,30.05,10.0,Calm,Calm,-,N/A,,Clear,0,2013-08-04 01:15:00
9:35 PM,78.8,73.4,83,30.07,10.0,Calm,Calm,-,N/A,,Clear,0,2013-08-04 01:35:00
9:53 PM,80.1,75.0,85,30.06,-9999.0,Calm,Calm,-,N/A,,Unknown,0,2013-08-04 01:53:00
9:55 PM,78.8,73.4,83,30.08,10.0,Calm,Calm,-,N/A,,Clear,0,2013-08-04 01:55:00
10:15 PM,78.8,73.4,83,30.08,10.0,Calm,Calm,-,N/A,,Clear,0,2013-08-04 02:15:00
10:35 PM,78.8,73.4,83,30.08,10.0,Calm,Calm,-,N/A,,Clear,0,2013-08-04 02:35:00
10:53 PM,80.1,75.0,85,30.07,-9999.0,Calm,Calm,-,N/A,,Unknown,0,2013-08-04 02:53:00
10:55 PM,78.8,73.4,83,30.08,10.0,Calm,Calm,-,N/A,,Clear,0,2013-08-04 02:55:00
11:15 PM,77.0,73.4,89,30.08,10.0,Calm,Calm,-,N/A,,Clear,0,2013-08-04 03:15:00
11:35 PM,77.0,73.4,89,30.08,10.0,Calm,Calm,-,N/A,,Clear,0,2013-08-04 03:35:00
11:53 PM,78.1,75.0,90,30.06,-9999.0,SW,3.5,-,N/A,,Unknown,230,2013-08-04 03:53:00
11:55 PM,77.0,73.4,89,30.08,10.0,Calm,Calm,-,N/A,,Clear,0,2013-08-04 03:55:00